Location: Ganspette
(50.8168°N, 2.1713°E)
Time: 01:17:50
(UTC+00:00)

Daily predictions for brighter satellites

Satellite Brightness Start Highest point End
(mag) Time Altitude Azimuth Time Altitude Azimuth Time Altitude Azimuth
ATLAS CENTAUR R/B 2.9 00:01:40 10° NW 00:03:28 27° NNE 00:06:17 10° E
STARLINK-1226 3.3 00:00:40 10° WNW 00:03:47 63° N 00:06:53 10° E
STARLINK-1215 3.3 00:01:36 10° WNW 00:04:43 64° N 00:07:50 10° E
STARLINK-1225 3.7 00:00:45 10° WSW 00:04:55 79° NNW 00:09:04 10° ENE
Cosmos 292 Rocket 3.8 00:03:39 30° SW 00:06:02 75° WNW 00:10:55 10° NNE
STARLINK-1217 3.2 00:03:22 10° WNW 00:06:29 64° N 00:09:36 10° E
STARLINK-1229 3.2 00:04:18 10° WNW 00:07:25 65° N 00:10:32 10° E
STARLINK-1271 4.1 00:03:40 10° W 00:07:47 63° N 00:11:55 10° E
STARLINK-1104 4.1 00:04:18 10° WNW 00:08:10 39° SW 00:08:12 39° SSW
STARLINK-1270 3.2 00:05:10 10° WNW 00:08:17 65° NNE 00:11:23 10° E
S3M 4.4 00:03:29 10° NNW 00:09:23 50° W 00:12:36 26° SSW
STARLINK-1230 3.7 00:05:44 10° W 00:09:52 76° NNW 00:14:03 10° ENE
Cosmos 1726 2.4 00:06:27 10° NNW 00:10:04 52° W 00:10:54 42° SW
STARLINK-1189 3.2 00:07:00 10° WNW 00:10:07 66° NNE 00:13:14 10° E
STARLINK-1188 3.2 00:07:53 10° WNW 00:11:00 66° NNE 00:14:07 10° E
Cosmos 1655 Rocket 4.2 00:07:30 26° SSW 00:11:08 64° WNW 00:17:22 10° N
Cosmos 2058 Rocket 4.1 00:06:58 10° N 00:11:09 40° ENE 00:13:45 20° SE
STARLINK-1235 3.0 00:08:35 10° WNW 00:11:42 73° NNE 00:14:47 10° E
GEOS 3 Rocket 3.6 00:07:39 17° SE 00:11:47 89° NE 00:17:07 10° NW
STARLINK-1187 3.1 00:09:01 10° WNW 00:12:06 70° NNE 00:15:12 10° E
STARLINK-1154 4.0 00:08:39 10° W 00:12:47 64° N 00:16:55 10° E
Meteor 1-29 4.0 00:09:42 10° NNE 00:12:50 33° E 00:13:32 30° SE
SL-27 R/B 4.1 00:10:07 10° NW 00:12:55 21° W 00:13:10 21° WSW
STARLINK-1144 4.2 00:09:18 10° WNW 00:12:59 36° SW 00:12:59 36° SW
STARLINK-1191 3.1 00:10:22 10° WNW 00:13:28 67° NNE 00:16:34 10° E
Cosmos 2228 3.0 00:09:30 10° N 00:13:47 75° E 00:15:32 34° SSE
SJ 16-02 4.1 00:11:39 10° N 00:14:14 15° NE 00:16:49 10° E
COSMOS 2455 3.5 00:11:39 27° SSE 00:14:16 40° ESE 00:19:50 10° NE
STARLINK-1221 3.1 00:11:14 10° WNW 00:14:20 68° NNE 00:17:26 10° E
STARLINK-1243 3.8 00:10:43 10° W 00:14:52 74° NNW 00:19:02 10° ENE
STARLINK-1222 3.1 00:12:08 10° WNW 00:15:14 68° NNE 00:18:20 10° E
Cosmos 2263 4.1 00:12:25 28° SSW 00:15:30 89° WNW 00:21:10 10° NNE
STARLINK-1214 3.1 00:13:03 10° WNW 00:16:09 69° NNE 00:19:14 10° E
Meteor 2-15 Rocket 4.4 00:11:15 10° NNW 00:17:26 84° W 00:20:55 28° S
STARLINK-1197 4.0 00:13:39 10° WNW 00:17:46 64° N 00:21:54 10° E
STARLINK-1103 4.3 00:14:19 10° WNW 00:17:46 33° SW 00:17:46 33° SW
Cosmos 1953 3.1 00:14:34 10° NNW 00:18:20 39° W 00:19:26 32° SW
STARLINK-1236 3.8 00:15:43 10° W 00:19:51 72° NNW 00:24:01 10° ENE
Cosmos 1340 Rocket 3.2 00:16:04 10° NNW 00:19:58 50° W 00:21:08 37° SW
STARLINK-1198 4.0 00:18:36 10° WNW 00:22:44 65° N 00:26:52 10° E
Cosmos 1300 4.0 00:19:25 10° N 00:22:57 34° ENE 00:25:04 19° SE
STARLINK-1101 4.5 00:19:19 10° W 00:22:33 31° SW 00:22:33 31° SW
Cosmos 1271 Rocket 4.1 00:21:40 22° WSW 00:23:19 31° WNW 00:26:49 10° N
BREEZE M DEB (TANK) 4.1 00:26:49 16° ESE 00:26:49 16° ESE 00:27:37 10° E
COSMOS 2487 2.3 00:23:04 10° NNW 00:26:33 73° WSW 00:27:18 50° S
STARLINK-1199 4.0 00:23:38 10° WNW 00:27:46 66° N 00:31:54 10° E
Cosmos 1992 Rocket 4.0 00:25:15 28° SW 00:28:01 76° WNW 00:33:15 10° NNE
STARLINK-1269 3.9 00:25:41 10° W 00:29:49 69° N 00:33:58 10° ENE
Cosmos 1707 4.2 00:29:05 21° WSW 00:30:46 28° WNW 00:34:13 10° N
STARLINK-1210 4.0 00:28:36 10° WNW 00:32:44 67° N 00:36:53 10° E
STARLINK-1200 3.9 00:30:42 10° W 00:34:50 68° N 00:38:58 10° ENE
Cosmos 1626 3.0 00:34:31 28° SE 00:35:52 39° E 00:39:22 10° NNE
Cosmos 1656 Rocket 3.7 00:33:52 27° SSW 00:37:03 85° WNW 00:42:41 10° NNE
Cosmos 1606 Rocket 3.6 00:32:52 10° NNW 00:37:09 63° W 00:38:48 35° SSW
STARLINK-1219 3.9 00:33:35 10° WNW 00:37:44 68° N 00:41:52 10° E
In-Cosmos 22 4.4 00:35:37 27° SW 00:38:29 58° WNW 00:43:42 10° N
STARLINK-1192 4.0 00:35:41 10° W 00:39:49 67° N 00:43:58 10° ENE
FALCON 9 R/B 3.9 00:38:25 23° S 00:40:39 26° SSE 00:53:23 10° ESE
STARLINK-1211 3.9 00:38:33 10° WNW 00:42:42 69° N 00:46:51 10° E
CZ-4 R/B 3.9 00:38:08 10° NNE 00:42:59 71° WNW 00:45:23 29° SSW
STARLINK-1244 4.0 00:40:40 10° W 00:44:48 66° N 00:48:56 10° ENE
Cosmos 2297 Rocket 3.5 00:41:31 10° NNW 00:46:51 40° NE 00:52:09 10° ESE
Cosmos 2292 Rocket 4.4 00:45:34 23° WSW 00:47:27 34° WNW 00:50:50 10° N
ERBS 4.5 00:44:42 10° WNW 00:47:38 27° N 00:50:34 10° ENE
STARLINK-1245 3.9 00:43:34 10° WNW 00:47:42 71° N 00:51:52 10° E
MOZ.5/SAFIR/RUBIN 5/SL-8 4.4 00:44:15 16° SE 00:47:48 53° ENE 00:52:19 10° N
Meteor 2-21 4.5 00:45:34 26° S 00:49:16 81° E 00:55:29 10° NNE
STARLINK-1138 4.0 00:45:40 10° W 00:49:47 65° N 00:53:55 10° ENE
SL-4 R/B 3.0 00:49:12 31° S 00:50:36 38° SSE 00:55:00 10° E
NOSS 5 (C) 4.3 00:48:27 10° NW 00:51:35 73° SW 00:53:30 26° SSE
PSLV R/B 3.9 00:47:02 10° N 00:51:39 64° WNW 00:53:53 29° SW
STARLINK-1203 4.1 00:48:15 10° W 00:52:26 65° N 00:56:38 10° ENE
STARLINK-1233 3.8 00:48:32 10° WNW 00:52:41 72° NNE 00:56:50 10° E
Cosmos 1437 4.0 00:52:48 25° SE 00:53:40 30° E 00:56:21 10° NNE
Cosmos 1674 3.2 00:53:21 31° SW 00:54:42 46° WNW 00:58:22 10° N
STARLINK-1143 4.0 00:50:39 10° W 00:54:47 64° N 00:58:55 10° ENE
SL-19 R/B 4.3 00:51:21 10° NNE 00:56:43 71° ESE 01:00:03 25° S
STARLINK-1204 3.8 00:53:32 10° WNW 00:57:42 74° NNE 01:01:51 10° E
Cosmos 1777 Rocket 4.0 00:53:25 10° NNW 00:58:38 70° WSW 01:01:54 23° S
ATLAS CENTAUR R/B 1.6 00:56:56 32° S 00:58:41 56° SE 01:02:45 10° NE
Timation 2 Rocket 3.9 00:52:27 10° NNW 00:58:55 83° WSW 01:04:30 13° SSE
STARLINK-1241 4.1 00:55:39 10° W 00:59:46 64° N 01:03:54 10° E
BREEZE-M R/B 4.3 01:01:07 23° SSE 01:01:18 23° SSE 01:04:07 10° E
NOSS 3-4 (A) 3.4 00:57:31 22° SW 01:01:33 89° SE 01:08:02 10° NE
NOSS 3-4 (C) 3.4 00:57:37 22° SW 01:01:39 88° SE 01:08:09 10° NE
SL-16 R/B 2.8 00:56:01 11° SSE 01:01:58 67° ENE 01:08:07 10° NNW
STARLINK-1238 3.7 00:58:29 10° WNW 01:02:39 76° NNE 01:06:48 10° E
Spot 1 4.3 01:00:54 27° S 01:03:24 70° WSW 01:08:18 10° NNW
STARLINK-29 4.5 01:04:34 22° SE 01:04:34 22° SE 01:06:55 10° E
STARLINK-1239 4.1 01:00:38 10° W 01:04:46 63° N 01:08:53 10° E
Cosmos 1455 4.3 01:02:12 10° NNE 01:05:16 23° ENE 01:08:18 10° ESE
ATLAS 3B R/B 2.7 00:59:23 10° NW 01:06:03 60° SW 01:12:42 11° SSE
STARLINK-1201 3.7 01:03:30 10° WNW 01:07:39 79° NNE 01:11:49 10° ESE
CENTAUR R/B 3.8 01:02:21 10° NW 01:09:37 38° WSW 01:14:47 20° SSW
STARLINK-1240 4.1 01:05:39 10° W 01:09:46 63° N 01:13:54 10° E
BREEZE-M DEB (TANK) 1.8 01:12:38 38° SSE 01:12:38 38° SSE 01:14:41 10° E
STARLINK-1206 3.7 01:08:28 10° WNW 01:12:38 81° NNE 01:16:48 10° ESE
Cosmos 1867 4.2 01:09:28 10° NW 01:14:24 35° WSW 01:16:44 24° SSW
STARLINK-1216 4.1 01:10:38 10° W 01:14:45 63° N 01:18:53 10° E
Meteor 2-21 Rocket 4.4 01:11:40 23° SSW 01:15:41 85° W 01:21:55 10° N
Cosmos 1892 Rocket 3.9 01:14:51 27° SW 01:17:05 55° WNW 01:21:25 10° N
Cosmos 1745 Rocket 4.1 01:12:45 20° S 01:17:11 70° E 01:23:18 10° NNE
STARLINK-1205 3.6 01:13:27 10° WNW 01:17:38 84° NNE 01:21:47 10° ESE
STARLINK-1237 4.1 01:15:38 10° W 01:19:45 63° N 01:23:53 10° E
RESURS DK-1 2.6 01:19:17 27° S 01:21:19 60° ESE 01:25:25 10° NE
STARLINK-1218 3.6 01:18:25 10° WNW 01:22:35 87° NNE 01:26:45 10° ESE
Cosmos 2227 Rocket 2.8 01:16:59 10° NNW 01:22:37 58° NE 01:28:13 10° SE
Cosmos 1356 Rocket 3.3 01:18:55 10° NNW 01:23:05 88° WSW 01:25:49 21° S
STARLINK-1202 4.1 01:20:38 10° W 01:24:45 63° N 01:28:53 10° E
Meteor 1-24 Rocket 3.7 01:22:03 24° SSW 01:25:20 68° WNW 01:30:45 10° N
CZ-2D R/B 2.5 01:21:12 10° NNE 01:26:26 57° E 01:30:15 18° S
Cosmos 2369 Rocket 3.8 01:21:39 10° W 01:26:28 28° NW 01:31:18 10° NNE
Helios 1B rocket 3.9 01:23:14 10° N 01:26:46 28° WNW 01:29:11 16° WSW
STARLINK-1254 3.6 01:23:25 10° WNW 01:27:35 90° N 01:31:44 10° ESE
ADEOS II 3.7 01:24:26 10° NE 01:28:52 27° E 01:33:16 10° SSE
ATLAS 2AS CENTAUR R/B 3.3 01:23:17 13° SW 01:30:32 70° NW 01:38:24 10° NE
STARLINK-1231 3.5 01:28:25 10° WNW 01:32:35 87° SSW 01:36:44 10° ESE
IKONOS-2 4.5 01:29:56 18° SSE 01:33:04 84° WSW 01:37:24 10° NNW
CZ-4C R/B 3.5 01:30:46 22° S 01:33:23 66° WSW 01:37:44 10° NNW
STARLINK-1228 3.5 01:31:06 10° W 01:34:14 37° SSW 01:37:21 10° SE
STARLINK-1246 4.1 01:30:36 10° WNW 01:34:44 64° N 01:38:52 10° E
STARLINK-1234 3.4 01:32:32 10° W 01:35:26 36° SSW 01:37:03 21° SSE
Resurs 1-4 Rocket 2.3 01:30:55 10° NNE 01:36:13 70° ESE 01:40:11 18° S
STARLINK-1212 3.1 01:33:52 10° WNW 01:36:51 44° SSW 01:39:49 10° SE
STARLINK-1105 3.1 01:34:20 10° WNW 01:37:19 43° SSW 01:40:16 10° SE
Cosmos 1943 Rocket 4.3 01:33:18 10° W 01:37:22 20° NW 01:41:29 10° NNE
STARLINK-1232 3.5 01:33:24 10° WNW 01:37:34 84° SSW 01:41:43 10° ESE
STARLINK-1209 3.5 01:34:49 10° W 01:37:42 33° SSW 01:38:42 26° S
STARLINK-1247 3.1 01:35:15 10° WNW 01:38:14 43° SSW 01:41:13 10° SE
STARLINK-1227 3.1 01:35:43 10° WNW 01:38:41 42° SSW 01:41:38 10° SE
Meteor 2-5 Rocket 4.4 01:35:17 19° SW 01:38:57 43° WNW 01:44:17 10° N
STARLINK-1226 3.2 01:36:34 10° WNW 01:39:32 42° SSW 01:42:31 10° SE
STARLINK-1224 4.1 01:35:35 10° WNW 01:39:43 65° N 01:43:51 10° E
STARLINK-1215 3.2 01:37:31 10° WNW 01:40:29 42° SSW 01:43:27 10° SE
STARLINK-52 3.8 01:39:41 28° S 01:40:39 35° SSE 01:43:37 10° E
USA 81 4.3 01:36:19 15° S 01:40:41 66° E 01:45:56 10° N
STARLINK-1217 3.2 01:39:17 10° WNW 01:42:14 40° SSW 01:45:12 10° SE
STARLINK-1208 3.5 01:38:21 10° WNW 01:42:31 80° SSW 01:46:40 10° ESE
STARLINK-1229 3.2 01:40:12 10° WNW 01:43:10 40° SSW 01:46:07 10° SE
NPP 3.8 01:38:15 10° NNE 01:43:39 70° ESE 01:47:57 16° S
STARLINK-1270 3.2 01:41:04 10° WNW 01:44:02 39° SSW 01:46:58 10° SE
STARLINK-1225 4.0 01:40:36 10° WNW 01:44:44 65° N 01:48:52 10° E
STARLINK-1189 3.3 01:42:55 10° W 01:45:51 38° SSW 01:48:47 10° SE
STARLINK-1188 3.3 01:43:48 10° W 01:46:45 38° SSW 01:49:40 10° SE
STARLINK-1235 3.6 01:44:34 10° W 01:47:21 31° SSW 01:50:08 10° SSE
STARLINK-1271 3.5 01:43:21 10° WNW 01:47:31 77° SSW 01:51:39 10° ESE
STARLINK-1187 3.4 01:44:57 10° W 01:47:48 34° SSW 01:50:39 10° SE
Cosmos 1898 Rocket 3.8 01:42:35 10° NNW 01:47:57 70° ENE 01:53:15 10° SSE
Cosmos 2058 Rocket 4.4 01:45:21 10° NNW 01:48:57 25° W 01:51:01 18° SW
STARLINK-1191 3.3 01:46:18 10° W 01:49:11 36° SSW 01:52:04 10° SE
Lacrosse 4 Rocket 3.3 01:45:29 10° NNW 01:49:32 34° NE 01:53:28 10° ESE
STARLINK-1230 4.0 01:45:34 10° WNW 01:49:43 66° N 01:53:51 10° E
Starlink 7 placeholder 1.5 01:49:43 56° WSW 01:50:02 90° NNW 01:52:01 10° ENE
STARLINK-1221 3.4 01:47:09 10° W 01:50:03 36° SSW 01:52:56 10° SE
STARLINK-1222 3.4 01:48:04 10° W 01:50:57 35° SSW 01:53:48 10° SE
Meteor 1-21 Rocket 4.5 01:46:48 14° S 01:51:34 67° E 01:57:14 10° NNE
STARLINK-1214 3.4 01:48:59 10° W 01:51:51 35° SSW 01:54:42 10° SE
STARLINK-1154 3.5 01:48:21 10° WNW 01:52:29 73° SSW 01:56:37 10° ESE
Cosmos 1656 4.4 01:48:20 14° S 01:52:55 46° ESE 01:58:17 10° NE
SJ 16-02 1.4 01:49:05 10° NNW 01:53:33 85° ENE 01:57:59 10° SSE
STARLINK-1243 4.0 01:50:34 10° WNW 01:54:42 67° N 01:58:50 10° E
CZ-4C R/B 3.8 01:50:59 10° SSE 01:54:53 23° ESE 01:59:18 10° ENE
Cosmos 2084 3.8 01:52:18 20° SSW 01:55:14 59° SE 01:59:38 10° NE
SL-08 ROCKET BODY 4.5 01:52:05 18° SSW 01:56:33 66° WNW 02:02:23 10° N
STARLINK-1197 3.5 01:53:19 10° WNW 01:57:28 69° SSW 02:01:35 10° ESE
Cosmos 1937 Rocket 4.0 01:52:59 10° NNW 01:58:12 63° ENE 02:03:25 10° SE
Cosmos 1300 4.2 01:55:26 10° NW 01:58:25 22° W 02:00:01 17° WSW
STARLINK-1236 4.0 01:55:33 10° WNW 01:59:42 69° N 02:03:50 10° E
COSMOS 2455 3.4 01:54:47 13° WSW 02:00:07 51° NW 02:06:01 10° NNE
Meteor 2-10 Rocket 3.5 01:55:09 10° NNW 02:00:33 82° W 02:05:43 10° S
STARLINK-1198 3.5 01:58:17 10° WNW 02:02:24 66° SSW 02:06:31 10° SE
Cosmos 921 Rocket 3.5 02:00:21 18° SW 02:03:17 49° WNW 02:07:30 10° NNE
Cosmos 1709 Rocket 4.0 02:01:48 13° S 02:07:18 89° E 02:13:29 10° N
STARLINK-1199 3.6 02:03:18 10° WNW 02:07:24 62° SSW 02:11:30 10° SE
STARLINK-1269 3.9 02:05:30 10° WNW 02:09:39 72° NNE 02:13:48 10° E
Cosmos 1626 Rocket 4.1 02:06:42 17° SW 02:09:41 44° WNW 02:13:53 10° N
Cosmos 1626 4.0 02:09:03 12° WSW 02:11:18 19° WNW 02:14:04 10° NNW
STARLINK-60 2.9 02:08:52 14° WSW 02:11:32 86° NNW 02:14:47 10° ENE
STARLINK-1210 3.6 02:08:16 10° WNW 02:12:21 59° SSW 02:16:26 10° SE
STARLINK-1200 3.9 02:10:30 10° WNW 02:14:40 74° NNE 02:18:49 10° E
Cosmos 2219 3.5 02:10:02 10° NW 02:15:27 47° WSW 02:20:49 10° S
STARLINK-1320 4.3 02:14:52 17° S 02:16:31 26° SE 02:19:12 10° E
STARLINK-1322 4.2 02:15:11 17° S 02:16:51 26° SE 02:19:32 10° E
STARLINK-1324 4.2 02:15:32 17° S 02:17:12 26° SE 02:19:54 10° E
STARLINK-1219 3.7 02:13:15 10° WNW 02:17:19 55° SSW 02:21:22 10° SE
STARLINK-1294 4.2 02:15:47 17° SSW 02:17:29 26° SE 02:20:12 10° E
STARLINK-1261 4.2 02:16:09 17° SSW 02:17:52 26° SE 02:20:33 10° E
STARLINK-1325 4.2 02:16:30 17° SSW 02:18:13 27° SE 02:20:55 10° E
STARLINK-1333 4.2 02:16:48 16° SSW 02:18:31 27° SE 02:21:14 10° E
STARLINK-1334 4.2 02:17:07 16° SSW 02:18:52 27° SE 02:21:34 10° E
STARLINK-1326 4.2 02:17:28 16° SSW 02:19:12 27° SE 02:21:55 10° E
STARLINK-1323 4.2 02:17:47 16° SSW 02:19:32 27° SE 02:22:15 10° E
STARLINK-1192 3.8 02:15:30 10° WNW 02:19:39 76° NNE 02:23:48 10° E
STARLINK-1338 4.4 02:17:39 16° SSW 02:19:47 28° SE 02:22:50 10° E
STARLINK-1349 4.2 02:18:06 16° SSW 02:19:53 27° SE 02:22:35 10° E
STARLINK-1336 4.2 02:18:28 16° SSW 02:20:14 27° SE 02:22:58 10° E
Cosmos 1980 Rocket 4.0 02:15:54 10° SSE 02:20:21 25° ESE 02:24:51 10° NE
STARLINK-1331 4.2 02:18:45 16° SSW 02:20:33 28° SE 02:23:16 10° E
STARLINK-1344 4.2 02:19:05 16° SSW 02:20:53 28° SE 02:23:37 10° E
STARLINK-1343 4.1 02:19:25 16° SSW 02:21:13 28° SE 02:23:58 10° E
STARLINK-1346 4.1 02:19:43 16° SSW 02:21:35 28° SE 02:24:22 10° E
STARLINK-1328 4.1 02:20:05 16° SSW 02:21:55 28° SE 02:24:40 10° E
STARLINK-1354 4.1 02:20:22 16° SSW 02:22:13 28° SE 02:24:58 10° E
STARLINK-1211 3.7 02:18:13 10° WNW 02:22:16 52° SSW 02:26:18 10° SE
STARLINK-1347 4.1 02:20:44 16° SSW 02:22:35 28° SE 02:25:20 10° E
STARLINK-1357 4.1 02:21:01 16° SSW 02:22:54 29° SE 02:25:39 10° E
Cosmos 1328 4.0 02:19:19 11° S 02:23:12 72° E 02:27:11 10° NNE
STARLINK-1335 4.1 02:21:22 16° SSW 02:23:14 29° SE 02:26:00 10° E
STARLINK-1327 4.1 02:21:40 16° SSW 02:23:34 29° SE 02:26:20 10° E
STARLINK-1371 4.3 02:21:31 15° SSW 02:23:48 30° SE 02:26:55 10° E
STARLINK-1340 4.1 02:22:01 16° SSW 02:23:56 29° SE 02:26:42 10° E
STARLINK-1356 4.1 02:22:21 16° SSW 02:24:15 29° SE 02:27:02 10° E
ERBS 4.0 02:21:24 10° NW 02:24:32 36° NNE 02:27:41 10° E
STARLINK-1345 4.1 02:22:41 16° SSW 02:24:36 29° SE 02:27:23 10° E
STARLINK-1244 3.8 02:20:28 10° WNW 02:24:38 78° NNE 02:28:47 10° ESE
Cosmos 192 4.4 02:20:35 14° SSW 02:24:51 78° WNW 02:29:51 10° NNE
STARLINK-1355 4.1 02:22:59 16° SSW 02:24:56 30° SE 02:27:43 10° E
STARLINK-1321 4.0 02:23:18 16° SSW 02:25:15 30° SE 02:28:02 10° E
STARLINK-1358 4.0 02:23:39 16° SSW 02:25:37 30° SE 02:28:24 10° E
ERS-2 2.8 02:22:06 10° SSE 02:25:41 58° ENE 02:29:19 10° N
STARLINK-1341 4.3 02:23:29 15° SSW 02:25:50 31° SE 02:28:59 10° E
STARLINK-1332 4.0 02:23:57 16° SSW 02:25:55 30° SE 02:28:43 10° E
STARLINK-1348 4.0 02:24:18 16° SSW 02:26:17 30° SE 02:29:05 10° E
STARLINK-1330 4.0 02:24:36 16° SSW 02:26:36 30° SE 02:29:24 10° E
STARLINK-1363 4.0 02:24:56 15° SSW 02:26:56 30° SE 02:29:44 10° E
STARLINK-1245 3.8 02:23:14 10° WNW 02:27:15 49° SSW 02:31:15 10° SE
STARLINK-1337 4.0 02:25:15 15° SSW 02:27:16 31° SSE 02:30:05 10° E
IRS-1C 4.5 02:22:04 10° NNE 02:27:24 65° ESE 02:32:41 10° S
STARLINK-1342 4.0 02:25:35 15° SSW 02:27:37 31° SE 02:30:26 10° E
STARLINK-1374 4.3 02:25:26 15° SSW 02:27:52 32° SE 02:31:03 10° E
AQUA 4.0 02:23:10 10° N 02:27:53 61° WNW 02:32:11 12° SSW
STARLINK-1364 4.0 02:25:55 15° SSW 02:27:57 31° SSE 02:30:46 10° E
STARLINK-1376 4.0 02:26:15 15° SSW 02:28:19 31° SE 02:31:08 10° E
STARLINK-1360 4.0 02:26:30 15° SSW 02:28:35 31° SE 02:31:24 10° E
STARLINK-1361 4.0 02:26:56 15° SSW 02:29:00 31° SSE 02:31:50 10° E
STARLINK-1367 4.0 02:27:10 15° SSW 02:29:16 32° SSE 02:32:09 10° E
STARLINK-1138 3.7 02:25:27 10° WNW 02:29:36 80° NNE 02:33:46 10° ESE
STARLINK-1366 3.9 02:27:33 15° SSW 02:29:39 32° SSE 02:32:29 10° E
STARLINK-1339 4.2 02:27:27 14° SSW 02:29:57 33° SE 02:33:08 10° E
SL-4 R/B 2.3 02:25:17 10° WSW 02:30:07 86° SSE 02:34:47 10° ENE
CZ-4B R/B 3.8 02:25:20 10° N 02:30:22 59° WNW 02:35:12 12° SSW
Cosmos 2297 Rocket 2.6 02:25:38 10° NW 02:30:59 44° WSW 02:36:18 10° S
STARLINK-1377 4.2 02:29:28 14° SSW 02:32:02 34° SE 02:35:15 10° E
STARLINK-1233 3.9 02:28:13 10° WNW 02:32:12 46° SSW 02:36:10 10° SE
STARLINK-1203 3.7 02:28:15 10° WNW 02:32:28 82° NNE 02:36:42 10° ESE
STARLINK-1353 4.1 02:31:17 14° SSW 02:33:53 34° SE 02:37:05 10° E
STARLINK-1143 3.7 02:30:26 10° WNW 02:34:35 83° NNE 02:38:45 10° ESE
Cosmos 2082 3.7 02:29:08 10° NNW 02:34:49 76° WSW 02:40:26 10° SSE
STARLINK-1375 4.1 02:33:04 13° SSW 02:35:44 35° SSE 02:38:58 10° E
Cosmos 990 Rocket 4.3 02:31:46 10° NNW 02:36:51 49° WSW 02:41:52 10° S
STARLINK-1204 3.9 02:33:13 10° WNW 02:37:10 43° SSW 02:41:06 10° SE
CBERS-1 4.1 02:32:09 10° NNE 02:37:16 73° WNW 02:42:22 10° SSW
ATLAS CENTAUR R/B 2.9 02:34:03 10° W 02:37:50 29° NW 02:41:24 10° NNE
STARLINK-1350 4.0 02:35:22 13° SSW 02:38:07 37° SSE 02:41:22 10° ENE
Cosmos 540 Rocket 4.4 02:33:32 10° S 02:38:24 44° ESE 02:43:17 10° NE
FALCON 9 DEB 3.2 02:35:24 12° WSW 02:38:29 66° SSE 02:41:57 10° ENE
STARLINK-1241 3.7 02:35:24 10° WNW 02:39:34 86° NNE 02:43:44 10° ESE
STARLINK-29 2.9 02:36:59 10° WSW 02:40:12 89° SSE 02:43:23 10° ENE
STARLINK-1352 4.0 02:37:40 13° SW 02:40:32 38° SSE 02:43:51 10° ENE
Cosmos 1455 3.0 02:37:35 10° NNW 02:40:57 32° W 02:44:15 10° SSW
STARLINK-1238 4.0 02:38:11 10° WNW 02:42:06 40° SW 02:45:59 10° SE
Cosmos 1825 Rocket 3.6 02:38:21 10° SSW 02:42:37 64° WNW 02:46:56 10° N
STARLINK-1368 3.9 02:39:45 12° SW 02:42:42 40° SSE 02:46:02 10° ENE
STARLINK-1239 3.6 02:40:23 10° WNW 02:44:33 89° NNE 02:48:43 10° ESE
STARLINK-1369 3.9 02:41:37 12° SW 02:44:36 41° SSE 02:47:56 10° ENE
Meteor 1-11 4.5 02:39:34 10° S 02:45:10 72° E 02:50:46 10° NNE
Meteor 1-28 Rocket 3.2 02:41:44 10° SSE 02:45:31 88° ENE 02:49:18 10° NNW
ATLAS CENTAUR R/B 3.0 02:42:49 10° W 02:45:41 28° SW 02:51:21 10° SSE
SL-16 R/B 3.6 02:41:06 10° SSW 02:46:06 26° W 02:51:10 10° NW
Cosmos 2263 Rocket 3.7 02:41:18 10° NNW 02:46:41 42° NE 02:51:59 10° ESE
STARLINK-1201 4.1 02:43:13 10° WNW 02:47:04 38° SW 02:50:55 10° SSE
STARLINK-1372 3.8 02:43:58 11° SW 02:47:04 42° SSE 02:50:26 10° ENE
Cosmos 372 Rocket 4.2 02:43:25 10° NNW 02:48:34 75° ENE 02:53:42 10° SSE
Cosmos 2074 Rocket 4.2 02:42:21 10° S 02:48:38 77° E 02:54:57 10° NNE
GP-B 3.8 02:45:03 10° NNW 02:49:11 39° W 02:53:18 10° SSW
STARLINK-1378 3.8 02:46:05 11° SW 02:49:17 44° SSE 02:52:41 10° ENE
STARLINK-1240 3.6 02:45:23 10° WNW 02:49:32 88° SSW 02:53:42 10° ESE
STARLINK-1329 3.8 02:46:35 11° SW 02:49:48 44° SSE 02:53:13 10° ENE
IRS-1D 3.9 02:44:52 10° N 02:50:08 59° WNW 02:55:20 10° SSW
STARLINK-1365 3.7 02:47:17 11° SW 02:50:32 46° SSE 02:53:56 10° ENE
Cosmos 841 Rocket 4.0 02:45:29 10° S 02:50:38 60° ESE 02:55:48 10° NNE
STARLINK-1379 3.8 02:48:13 11° SW 02:51:30 45° SSE 02:54:54 10° ENE
STARLINK-1206 4.2 02:48:13 10° WNW 02:52:01 35° SW 02:55:49 10° SSE
STARLINK-1362 3.7 02:48:47 11° SW 02:52:06 46° SSE 02:55:31 10° ENE
Cosmos-2242 3.6 02:48:33 10° NNW 02:52:31 38° W 02:56:26 10° SSW
Cosmos 1400 Rocket 2.8 02:49:39 10° NNW 02:53:47 75° W 02:57:54 10° S
ATLAS 5 CENTAUR R/B 4.0 02:53:13 10° NNW 02:53:55 11° N 02:54:40 10° NNE
STARLINK-1373 3.7 02:50:59 10° SW 02:54:23 47° SSE 02:57:49 10° ENE
STARLINK-1216 3.6 02:50:21 10° WNW 02:54:31 85° SSW 02:58:40 10° ESE
Cosmos 2221 3.3 02:50:17 10° N 02:54:32 55° ENE 02:58:48 10° SSE
ATLAS 3B R/B 4.3 02:52:17 10° WNW 02:55:28 14° WSW 02:58:42 10° SW
COBE Rocket 3.9 02:50:41 10° S 02:55:36 76° WSW 03:00:43 10° NNW
STARLINK-1390 3.7 02:53:01 10° SW 02:56:26 49° SSE 02:59:52 10° ENE
STARLINK-1205 4.3 02:53:13 10° W 02:56:58 33° SW 03:00:42 10° SSE
STARLINK-1237 3.6 02:55:20 10° WNW 02:59:30 81° SSW 03:03:39 10° ESE
RESURS DK-1 4.2 02:56:24 10° W 02:59:42 22° NW 03:03:01 10° N
Cosmos 2184 Rocket 4.1 02:53:57 10° S 03:00:09 88° E 03:06:22 10° N
SL-08 R/B 3.6 02:56:38 10° S 03:01:10 47° W 03:05:40 10° NNW
CZ-4C R/B 3.2 02:57:52 10° SSE 03:01:28 85° ENE 03:05:08 10° NNW
STARLINK-1218 4.4 02:58:13 10° W 03:01:54 31° SW 03:05:34 10° SSE
STARLINK-1202 3.6 03:00:20 10° WNW 03:04:29 78° SSW 03:08:38 10° ESE
IRS-P3 4.3 03:00:29 10° N 03:05:45 61° WNW 03:11:00 10° SSW
CZ-2D R/B 3.4 03:01:49 10° N 03:06:10 27° WNW 03:10:28 10° WSW
Cosmos 1703 4.1 03:02:36 10° SW 03:06:18 37° WNW 03:10:00 10° N
Cosmos 2227 Rocket 3.1 03:01:34 10° NW 03:06:21 29° WSW 03:11:07 10° SSW
STARLINK-1254 4.4 03:03:14 10° W 03:06:51 29° SW 03:10:27 10° SSE
ADEOS II 2.5 03:03:45 10° N 03:08:52 53° WNW 03:13:57 10° SW
Cosmos 1763 Rocket 3.7 03:04:23 10° SW 03:09:26 59° WNW 03:14:29 10° NNE
Cosmos 2150 Rocket 4.1 03:05:22 10° NNW 03:10:37 86° ENE 03:15:47 10° SSE
Cosmos 1697 Rocket 2.8 03:05:49 10° SSW 03:11:31 86° WNW 03:17:14 10° NNE
